^^
Datos históricos de la estación: Murcia-Puente Tocinos
Diario Informe para Enero 23, 2019 Unidades:  Métrico    Inglés   Ambas
Diario Semanal Mensual Anual Configurable
  Máximo: Mínimo: Media:
Temperatura: 18.5 °C 10.3 °C 14.6 °C
Punto de rocio: 5.0 °C 1.9 °C 3.8 °C
Humedad: 63% 36% 49%
Velocidad viento: 24.1km/h 0.0km/h 12km/h
Racha viento: 54.7km/h - -
Viento- - SW
Presión: 1010.5 hPa 1002.3 hPa -
Precipitación: 0.0 mm    
Historical Graphs
 
 
Tabla de datos para Enero 23, 2019
Hora Temperatura Punto de rocio Presión Viento Velocidad viento Racha viento Humedad Intensidad lluvia(por hora) Nubes
00:00 11.9 °C 2.3 °C 1010.5 hPa WNW 16.1 km/h 27.4 km/h 52% 0.0 mm CLR
00:05 11.9 °C 2.3 °C 1010.3 hPa NNW 16.4 km/h 18.5 km/h 52% 0.0 mm CLR
00:10 11.9 °C 2.3 °C 1010.3 hPa WNW 12.9 km/h 24.1 km/h 52% 0.0 mm CLR
00:15 11.8 °C 2.5 °C 1010.3 hPa SW 13.7 km/h 11.1 km/h 53% 0.0 mm CLR
00:19 11.7 °C 2.2 °C 1010.4 hPa WSW 7.6 km/h 11.1 km/h 52% 0.0 mm CLR
00:25 11.4 °C 1.9 °C 1010.4 hPa SSW 7.6 km/h 11.1 km/h 52% 0.0 mm CLR
00:30 11.1 °C 2.1 °C 1010.4 hPa SSW 8.0 km/h 11.3 km/h 54% 0.0 mm CLR
00:35 10.8 °C 2.1 °C 1010.0 hPa South 7.6 km/h 7.4 km/h 55% 0.0 mm CLR
00:39 10.8 °C 2.4 °C 1010.0 hPa ESE 5.0 km/h 7.4 km/h 56% 0.0 mm CLR
00:45 10.8 °C 2.4 °C 1010.0 hPa SE 5.0 km/h 10.0 km/h 56% 0.0 mm CLR
00:49 10.8 °C 2.4 °C 1009.8 hPa South 6.4 km/h 13.7 km/h 56% 0.0 mm CLR
00:55 11.0 °C 2.3 °C 1009.8 hPa South 6.4 km/h 9.3 km/h 55% 0.0 mm CLR
01:00 11.2 °C 2.5 °C 1009.8 hPa South 8.0 km/h 9.7 km/h 55% 0.0 mm CLR
01:05 11.3 °C 2.3 °C 1009.7 hPa South 8.0 km/h 9.7 km/h 54% 0.0 mm CLR
01:10 11.4 °C 2.4 °C 1009.7 hPa SSE 5.0 km/h 7.4 km/h 54% 0.0 mm CLR
01:15 11.6 °C 2.3 °C 1009.7 hPa SSE 5.0 km/h 5.6 km/h 53% 0.0 mm CLR
01:19 11.6 °C 2.3 °C 1009.5 hPa SSE 2.9 km/h 7.4 km/h 53% 0.0 mm CLR
01:25 11.6 °C 2.3 °C 1009.5 hPa SSE 2.9 km/h   53% 0.0 mm CLR
01:30 11.6 °C 2.6 °C 1009.5 hPa SSE 3.2 km/h 11.3 km/h 54% 0.0 mm CLR
01:35 11.6 °C 2.3 °C 1009.4 hPa WSW 2.9 km/h 11.1 km/h 53% 0.0 mm CLR
01:40 11.6 °C 2.3 °C 1009.4 hPa SSW 8.4 km/h 14.8 km/h 53% 0.0 mm CLR
01:45 11.6 °C 2.6 °C 1009.4 hPa South 8.4 km/h 14.8 km/h 54% 0.0 mm CLR
01:50 11.6 °C 2.6 °C 1009.1 hPa SSW 9.5 km/h 11.1 km/h 54% 0.0 mm CLR
01:55 11.5 °C 2.5 °C 1009.1 hPa SW 9.5 km/h 11.1 km/h 54% 0.0 mm CLR
02:00 11.4 °C 2.7 °C 1009.1 hPa SSW 8.0 km/h 11.3 km/h 55% 0.0 mm CLR
02:05 11.4 °C 2.7 °C 1009.2 hPa WSW 8.4 km/h 11.1 km/h 55% 0.0 mm CLR
02:10 11.4 °C 2.7 °C 1009.2 hPa SW 6.9 km/h 7.4 km/h 55% 0.0 mm CLR
02:15 11.5 °C 2.8 °C 1009.2 hPa South 6.9 km/h 10.0 km/h 55% 0.0 mm CLR
02:20 11.6 °C 2.8 °C 1009.1 hPa South 8.0 km/h 12.9 km/h 55% 0.0 mm CLR
02:25 11.4 °C 2.7 °C 1009.1 hPa SE 6.4 km/h 13.0 km/h 55% 0.0 mm CLR
02:30 11.4 °C 2.9 °C 1009.1 hPa South 9.7 km/h 14.5 km/h 56% 0.0 mm CLR
02:35 11.6 °C 2.8 °C 1009.1 hPa South 9.5 km/h 16.7 km/h 55% 0.0 mm CLR
02:40 11.7 °C 2.9 °C 1009.1 hPa South 11.3 km/h 19.3 km/h 55% 0.0 mm CLR
02:45 11.7 °C 2.9 °C 1009.1 hPa SE 10.3 km/h 16.7 km/h 55% 0.0 mm CLR
02:49 11.7 °C 3.2 °C 1009.1 hPa SSW 11.9 km/h 13.0 km/h 56% 0.0 mm CLR
02:55 11.7 °C 3.2 °C 1009.1 hPa SSW 11.9 km/h 22.2 km/h 56% 0.0 mm CLR
03:00 11.7 °C 3.2 °C 1009.1 hPa SSW 12.9 km/h 19.3 km/h 56% 0.0 mm CLR
03:05 11.6 °C 3.1 °C 1009.1 hPa South 13.0 km/h 13.0 km/h 56% 0.0 mm CLR
03:10 11.5 °C 3.3 °C 1009.1 hPa South 7.6 km/h 11.1 km/h 57% 0.0 mm CLR
03:15 11.4 °C 3.2 °C 1009.1 hPa South 8.0 km/h 14.5 km/h 57% 0.0 mm CLR
03:19 11.4 °C 3.2 °C 1008.8 hPa South 10.3 km/h 16.7 km/h 57% 0.0 mm CLR
03:25 11.5 °C 3.5 °C 1008.8 hPa South 10.3 km/h 18.3 km/h 58% 0.0 mm CLR
03:29 11.6 °C 3.4 °C 1008.8 hPa SSW 13.7 km/h 16.7 km/h 57% 0.0 mm CLR
03:35 11.6 °C 3.4 °C 1008.7 hPa SSE 13.7 km/h 14.8 km/h 57% 0.0 mm CLR
03:40 11.6 °C 3.6 °C 1008.7 hPa SSE 11.9 km/h 14.8 km/h 58% 0.0 mm CLR
03:45 11.6 °C 3.4 °C 1008.7 hPa South 11.9 km/h 13.0 km/h 57% 0.0 mm CLR
03:49 11.6 °C 3.4 °C 1008.6 hPa SW 10.0 km/h 16.7 km/h 57% 0.0 mm CLR
03:55 11.6 °C 3.4 °C 1008.6 hPa SSW 10.0 km/h 9.3 km/h 57% 0.0 mm CLR
04:00 11.4 °C 3.4 °C 1008.6 hPa SSW 9.7 km/h 11.3 km/h 58% 0.0 mm CLR
04:05 11.4 °C 3.4 °C 1008.3 hPa SW 9.7 km/h 11.3 km/h 58% 0.0 mm CLR
04:10 11.3 °C 3.3 °C 1008.3 hPa West 6.4 km/h 7.4 km/h 58% 0.0 mm CLR
04:15 11.3 °C 3.3 °C 1008.3 hPa WNW 6.4 km/h 7.6 km/h 58% 0.0 mm CLR
04:19 11.3 °C 3.6 °C 1008.1 hPa WNW 5.0 km/h 13.0 km/h 59% 0.0 mm CLR
04:25 11.3 °C 3.6 °C 1008.1 hPa WNW 5.0 km/h 7.4 km/h 59% 0.0 mm CLR
04:30 11.3 °C 3.6 °C 1008.1 hPa West 5.8 km/h 11.1 km/h 59% 0.0 mm CLR
04:35 11.4 °C 3.7 °C 1007.9 hPa WNW 5.8 km/h 14.8 km/h 59% 0.0 mm CLR
04:40 11.3 °C 3.6 °C 1007.9 hPa WNW 8.0 km/h 14.5 km/h 59% 0.0 mm CLR
04:45 11.3 °C 3.6 °C 1007.9 hPa SW 8.4 km/h 10.0 km/h 59% 0.0 mm CLR
04:50 11.2 °C 3.7 °C 1007.8 hPa WSW 8.7 km/h 16.7 km/h 60% 0.0 mm CLR
04:55 11.1 °C 3.6 °C 1007.8 hPa WNW 8.7 km/h 12.2 km/h 60% 0.0 mm CLR
05:00 11.0 °C 3.5 °C 1007.8 hPa West 9.7 km/h 19.3 km/h 60% 0.0 mm CLR
05:05 10.9 °C 3.7 °C 1007.7 hPa West 10.0 km/h 13.0 km/h 61% 0.0 mm CLR
05:10 10.8 °C 3.6 °C 1007.7 hPa West 9.5 km/h 14.8 km/h 61% 0.0 mm CLR
05:15 10.8 °C 3.6 °C 1007.7 hPa West 9.7 km/h 16.1 km/h 61% 0.0 mm CLR
05:20 10.7 °C 3.7 °C 1007.8 hPa West 8.7 km/h 13.0 km/h 62% 0.0 mm CLR
05:25 10.7 °C 3.7 °C 1007.8 hPa West 9.7 km/h 11.3 km/h 62% 0.0 mm CLR
05:30 10.6 °C 3.6 °C 1007.8 hPa West 6.9 km/h 7.4 km/h 62% 0.0 mm CLR
05:35 10.6 °C 3.8 °C 1007.9 hPa WSW 6.9 km/h 7.4 km/h 63% 0.0 mm CLR
05:40 10.5 °C 3.7 °C 1007.9 hPa WSW 5.0 km/h 7.4 km/h 63% 0.0 mm CLR
05:45 10.5 °C 3.7 °C 1007.9 hPa South 5.0 km/h 8.4 km/h 63% 0.0 mm CLR
05:50 10.4 °C 3.7 °C 1007.8 hPa SSW 5.8 km/h 11.1 km/h 63% 0.0 mm CLR
05:55 10.5 °C 3.7 °C 1007.8 hPa SW 5.8 km/h 9.3 km/h 63% 0.0 mm CLR
06:00 10.6 °C 3.6 °C 1007.8 hPa SW 8.0 km/h 9.7 km/h 62% 0.0 mm CLR
06:05 10.7 °C 3.7 °C 1008.0 hPa WSW 6.9 km/h 9.3 km/h 62% 0.0 mm CLR
06:10 10.9 °C 3.7 °C 1008.0 hPa SW 5.8 km/h 7.4 km/h 61% 0.0 mm CLR
06:15 10.9 °C 3.7 °C 1008.0 hPa WSW 5.8 km/h 7.4 km/h 61% 0.0 mm CLR
06:20 11.1 °C 3.6 °C 1008.1 hPa SW 4.8 km/h 8.0 km/h 60% 0.0 mm CLR
06:25 11.1 °C 3.6 °C 1008.1 hPa NNW 5.0 km/h 3.7 km/h 60% 0.0 mm CLR
06:30 11.0 °C 3.8 °C 1008.1 hPa NW 3.2 km/h 8.0 km/h 61% 0.0 mm CLR
06:35 11.2 °C 3.7 °C 1007.9 hPa South 2.9 km/h 7.4 km/h 60% 0.0 mm CLR
06:39 11.4 °C 3.7 °C 1007.9 hPa SW 5.0 km/h 5.6 km/h 59% 0.0 mm CLR
06:45 11.6 °C 3.6 °C 1007.9 hPa SSW 4.8 km/h 11.3 km/h 58% 0.0 mm CLR
06:49 11.7 °C 3.7 °C 1007.6 hPa SW 6.4 km/h 10.3 km/h 58% 0.0 mm CLR
06:55 11.7 °C 3.7 °C 1007.6 hPa WSW 6.4 km/h 9.3 km/h 58% 0.0 mm CLR
07:00 11.8 °C 3.6 °C 1007.6 hPa WSW 8.0 km/h 9.7 km/h 57% 0.0 mm CLR
07:05 11.7 °C 3.4 °C 1007.3 hPa WSW 8.0 km/h 11.3 km/h 57% 0.0 mm CLR
07:10 11.6 °C 3.6 °C 1007.3 hPa SW 6.4 km/h 7.4 km/h 58% 0.0 mm CLR
07:15 11.4 °C 3.4 °C 1007.3 hPa SW 6.4 km/h 8.7 km/h 58% 0.0 mm CLR
07:20 11.4 °C 3.4 °C 1007.3 hPa SW 5.8 km/h 9.3 km/h 58% 0.0 mm CLR
07:25 11.4 °C 3.4 °C 1007.3 hPa SW 4.8 km/h 11.3 km/h 58% 0.0 mm CLR
07:30 11.4 °C 3.4 °C 1007.3 hPa SW 8.0 km/h 11.3 km/h 58% 0.0 mm CLR
07:35 11.3 °C 3.4 °C 1007.2 hPa SW 8.0 km/h 11.3 km/h 58% 0.0 mm CLR
07:40 11.3 °C 3.3 °C 1007.2 hPa SSW 8.0 km/h 12.9 km/h 58% 0.0 mm CLR
07:45 11.1 °C 3.2 °C 1007.2 hPa SSW 8.0 km/h 14.5 km/h 58% 0.0 mm CLR
07:50 10.9 °C 3.2 °C 1007.2 hPa South 9.7 km/h 16.1 km/h 59% 0.0 mm CLR
07:55 10.7 °C 3.2 °C 1007.2 hPa SSW 8.7 km/h 13.0 km/h 60% 0.0 mm CLR
08:00 10.6 °C 3.2 °C 1007.2 hPa SSW 9.7 km/h 16.1 km/h 60% 0.0 mm CLR
08:05 10.6 °C 3.2 °C 1006.9 hPa South 9.5 km/h 13.0 km/h 60% 0.0 mm CLR
08:09 10.5 °C 3.1 °C 1006.9 hPa South 10.0 km/h 14.8 km/h 60% 0.0 mm CLR
08:15 10.4 °C 2.9 °C 1006.9 hPa South 10.0 km/h 13.0 km/h 60% 0.0 mm CLR
08:20 10.5 °C 3.1 °C 1006.8 hPa SSW 9.7 km/h 14.5 km/h 60% 0.0 mm CLR
08:25 10.4 °C 2.9 °C 1006.8 hPa South 9.5 km/h 11.1 km/h 60% 0.0 mm CLR
08:30 10.4 °C 3.2 °C 1006.8 hPa SSW 8.0 km/h 12.9 km/h 61% 0.0 mm CLR
08:35 10.3 °C 3.3 °C 1006.8 hPa South 8.4 km/h 11.1 km/h 62% 0.0 mm CLR
08:39 10.3 °C 3.3 °C 1006.8 hPa SSW 7.6 km/h 9.3 km/h 62% 0.0 mm CLR
08:45 10.3 °C 3.3 °C 1006.8 hPa SSW 7.6 km/h 7.6 km/h 62% 0.0 mm CLR
08:50 10.4 °C 3.2 °C 1006.4 hPa SSW 8.0 km/h 8.0 km/h 61% 0.0 mm CLR
08:55 10.6 °C 3.4 °C 1006.4 hPa SSW 6.4 km/h 5.6 km/h 61% 0.0 mm CLR
09:00 10.7 °C 3.2 °C 1006.4 hPa SSW 3.2 km/h 8.0 km/h 60% 0.0 mm CLR
09:05 10.7 °C 3.2 °C 1006.3 hPa South 3.2 km/h 12.9 km/h 60% 0.0 mm CLR
09:10 10.7 °C 3.2 °C 1006.3 hPa South 4.8 km/h 8.0 km/h 60% 0.0 mm CLR
09:15 10.8 °C 3.5 °C 1006.3 hPa SSW 4.8 km/h 3.2 km/h 61% 0.0 mm CLR
09:20 10.9 °C 3.4 °C 1006.5 hPa SSW 3.2 km/h 8.0 km/h 60% 0.0 mm CLR
09:25 11.0 °C 3.6 °C 1006.5 hPa SSW 3.2 km/h 8.0 km/h 60% 0.0 mm CLR
09:30 10.9 °C 3.4 °C 1006.5 hPa ENE 3.2 km/h 8.0 km/h 60% 0.0 mm CLR
09:35 10.9 °C 3.7 °C 1005.9 hPa NW 3.2 km/h 10.0 km/h 61% 0.0 mm CLR
09:39 10.9 °C 3.7 °C 1005.9 hPa ESE 4.7 km/h 7.4 km/h 61% 0.0 mm CLR
09:45 10.9 °C 3.7 °C 1005.9 hPa ENE 3.2 km/h 9.7 km/h 61% 0.0 mm CLR
09:50 11.1 °C 3.6 °C 1005.4 hPa ESE 5.0 km/h 9.3 km/h 60% 0.0 mm CLR
09:55 11.3 °C 3.8 °C 1005.4 hPa East 4.8 km/h 8.0 km/h 60% 0.0 mm CLR
10:00 11.4 °C 3.7 °C 1005.4 hPa East 4.8 km/h 9.7 km/h 59% 0.0 mm CLR
10:05 11.6 °C 3.8 °C 1005.4 hPa East 5.8 km/h 7.4 km/h 59% 0.0 mm CLR
10:10 11.8 °C 4.1 °C 1005.4 hPa ESE 4.8 km/h 8.0 km/h 59% 0.0 mm CLR
10:15 12.2 °C 4.2 °C 1005.4 hPa East 4.8 km/h 6.4 km/h 58% 0.0 mm CLR
10:20 12.5 °C 4.2 °C 1005.3 hPa East 3.9 km/h 3.7 km/h 57% 0.0 mm CLR
10:25 12.7 °C 4.4 °C 1005.3 hPa East 3.2 km/h 4.8 km/h 57% 0.0 mm CLR
10:30 13.1 °C 4.6 °C 1005.3 hPa East 1.6 km/h   56% 0.0 mm CLR
10:35 13.6 °C 4.4 °C 1005.3 hPa East 2.3 km/h 3.9 km/h 54% 0.0 mm CLR
10:39 14.0 °C 4.3 °C 1005.3 hPa East 2.3 km/h 3.7 km/h 52% 0.0 mm CLR
10:45 14.4 °C 4.3 °C 1005.3 hPa East 1.6 km/h 4.8 km/h 51% 0.0 mm CLR
10:50 14.8 °C 4.4 °C 1005.1 hPa Calm     50% 0.0 mm CLR
10:55 15.0 °C 4.3 °C 1005.1 hPa Calm   3.2 km/h 49% 0.0 mm CLR
11:00 15.2 °C 4.3 °C 1005.1 hPa Calm   8.0 km/h 48% 0.0 mm CLR
11:05 15.1 °C 4.4 °C 1004.8 hPa Calm   5.6 km/h 49% 0.0 mm CLR
11:09 15.1 °C 4.4 °C 1004.8 hPa NNE 2.9 km/h 5.8 km/h 49% 0.0 mm CLR
11:15 15.1 °C 4.2 °C 1004.8 hPa ENE 2.9 km/h 9.3 km/h 48% 0.0 mm CLR
11:20 14.9 °C 4.3 °C 1004.6 hPa NE 4.8 km/h 9.7 km/h 49% 0.0 mm CLR
11:25 15.1 °C 4.2 °C 1004.6 hPa NE 5.0 km/h 11.1 km/h 48% 0.0 mm CLR
11:30 15.2 °C 4.3 °C 1004.6 hPa ESE 5.0 km/h 7.4 km/h 48% 0.0 mm CLR
11:35 15.4 °C 4.4 °C 1004.4 hPa East 5.0 km/h 7.4 km/h 48% 0.0 mm CLR
11:40 15.6 °C 4.3 °C 1004.4 hPa ESE 4.8 km/h 11.3 km/h 47% 0.0 mm CLR
11:45 15.9 °C 4.3 °C 1004.4 hPa SSW 5.8 km/h 13.0 km/h 46% 0.0 mm CLR
11:50 16.2 °C 3.6 °C 1004.2 hPa SSW 7.6 km/h 20.4 km/h 43% 0.0 mm CLR
11:55 16.4 °C 3.4 °C 1004.2 hPa South 7.6 km/h 18.5 km/h 42% 0.0 mm CLR
12:00 16.6 °C 3.6 °C 1004.2 hPa SSW 12.9 km/h 16.1 km/h 42% 0.0 mm CLR
12:05 16.9 °C 3.9 °C 1003.9 hPa NW 13.0 km/h 5.6 km/h 42% 0.0 mm CLR
12:10 17.4 °C 3.3 °C 1003.9 hPa SW 8.4 km/h 24.1 km/h 39% 0.0 mm CLR
12:15 17.9 °C 3.4 °C 1003.9 hPa WNW 8.0 km/h 30.6 km/h 38% 0.0 mm CLR
12:20 18.3 °C 2.9 °C 1003.7 hPa WSW 13.0 km/h 31.5 km/h 36% 0.0 mm CLR
12:25 18.4 °C 3.1 °C 1003.7 hPa NW 13.0 km/h 18.5 km/h 36% 0.0 mm CLR
12:29 18.5 °C 3.1 °C 1003.7 hPa West 14.0 km/h 28.2 km/h 36% 0.0 mm CLR
12:35 18.4 °C 3.1 °C 1003.8 hPa West 14.5 km/h 33.8 km/h 36% 0.0 mm CLR
12:40 18.1 °C 3.2 °C 1003.8 hPa NW 18.0 km/h 11.1 km/h 37% 0.0 mm CLR
12:45 17.8 °C 2.9 °C 1003.8 hPa WNW 18.0 km/h 22.2 km/h 37% 0.0 mm CLR
12:50 17.7 °C 2.8 °C 1003.7 hPa WNW 11.3 km/h 22.5 km/h 37% 0.0 mm CLR
12:55 17.7 °C 3.1 °C 1003.7 hPa WNW 11.3 km/h 33.8 km/h 38% 0.0 mm CLR
13:00 17.7 °C 3.2 °C 1003.7 hPa WNW 11.3 km/h 24.1 km/h 38% 0.0 mm CLR
13:05 17.7 °C 3.2 °C 1003.7 hPa NNW 11.9 km/h 7.4 km/h 38% 0.0 mm CLR
13:10 17.7 °C 3.2 °C 1003.7 hPa WSW 8.4 km/h 18.5 km/h 38% 0.0 mm CLR
13:15 17.7 °C 3.2 °C 1003.7 hPa West 8.0 km/h 14.5 km/h 38% 0.0 mm CLR
13:19 17.7 °C 3.2 °C 1003.7 hPa NW 8.4 km/h 38.9 km/h 38% 0.0 mm FEW
13:25 17.6 °C 3.1 °C 1003.7 hPa West 8.4 km/h 18.5 km/h 38% 0.0 mm FEW
13:30 17.6 °C 3.4 °C 1003.7 hPa West 14.0 km/h 11.1 km/h 39% 0.0 mm FEW
13:35 17.7 °C 3.6 °C 1003.7 hPa West 14.0 km/h 18.5 km/h 39% 0.0 mm FEW
13:39 17.8 °C 3.3 °C 1003.7 hPa WNW 8.7 km/h 33.3 km/h 38% 0.0 mm FEW
13:45 17.8 °C 3.7 °C 1003.7 hPa West 9.7 km/h 22.5 km/h 39% 0.0 mm FEW
13:50 17.8 °C 3.7 °C 1003.5 hPa West 12.9 km/h 22.5 km/h 39% 0.0 mm FEW
13:55 18.0 °C 3.4 °C 1003.5 hPa NW 13.0 km/h 29.6 km/h 38% 0.0 mm FEW
14:00 17.9 °C 3.4 °C 1003.5 hPa West 14.5 km/h 45.1 km/h 38% 0.0 mm FEW
14:05 17.8 °C 3.7 °C 1003.1 hPa West 14.5 km/h 37.0 km/h 39% 0.0 mm FEW
14:10 18.0 °C 3.8 °C 1003.1 hPa NW 19.0 km/h 35.2 km/h 39% 0.0 mm FEW
14:15 18.0 °C 3.4 °C 1003.1 hPa WNW 19.0 km/h 48.1 km/h 38% 0.0 mm FEW
14:20 17.9 °C 3.7 °C 1003.0 hPa WNW 21.7 km/h 18.5 km/h 39% 0.0 mm FEW
14:25 18.1 °C 3.9 °C 1003.0 hPa WNW 21.7 km/h 33.3 km/h 39% 0.0 mm FEW
14:30 18.0 °C 3.8 °C 1003.0 hPa West 16.1 km/h 37.0 km/h 39% 0.0 mm FEW
14:35 17.9 °C 3.7 °C 1003.0 hPa SW 16.4 km/h 14.8 km/h 39% 0.0 mm FEW
14:40 18.0 °C 3.8 °C 1003.0 hPa West 17.2 km/h 18.5 km/h 39% 0.0 mm FEW
14:45 17.9 °C 3.7 °C 1003.0 hPa WNW 16.1 km/h 33.8 km/h 39% 0.0 mm FEW
14:50 17.8 °C 4.0 °C 1002.9 hPa WNW 19.3 km/h 29.0 km/h 40% 0.0 mm FEW
14:55 17.8 °C 4.0 °C 1002.9 hPa WNW 19.3 km/h 33.8 km/h 40% 0.0 mm FEW
15:00 17.8 °C 4.0 °C 1002.9 hPa WNW 12.9 km/h 32.2 km/h 40% 0.0 mm FEW
15:05 17.8 °C 4.0 °C 1002.9 hPa West 13.7 km/h 33.3 km/h 40% 0.0 mm FEW
15:10 17.8 °C 4.0 °C 1002.9 hPa West 20.1 km/h 31.5 km/h 40% 0.0 mm FEW
15:15 17.8 °C 4.0 °C 1002.9 hPa West 20.9 km/h 48.3 km/h 40% 0.0 mm FEW
15:20 17.8 °C 4.0 °C 1003.0 hPa WNW 20.1 km/h 24.1 km/h 40% 0.0 mm FEW
15:25 17.7 °C 3.9 °C 1003.0 hPa West 20.1 km/h 42.6 km/h 40% 0.0 mm FEW
15:30 17.6 °C 4.2 °C 1003.0 hPa West 20.9 km/h 37.0 km/h 41% 0.0 mm FEW
15:35 17.6 °C 4.2 °C 1003.2 hPa West 20.9 km/h 40.2 km/h 41% 0.0 mm FEW
15:40 17.5 °C 4.1 °C 1003.2 hPa West 20.9 km/h 35.4 km/h 41% 0.0 mm FEW
15:45 17.6 °C 4.2 °C 1003.2 hPa WSW 20.1 km/h 16.7 km/h 41% 0.0 mm FEW
15:50 17.5 °C 4.1 °C 1003.4 hPa West 16.1 km/h 35.4 km/h 41% 0.0 mm FEW
15:55 17.4 °C 4.0 °C 1003.4 hPa West 16.4 km/h 29.6 km/h 41% 0.0 mm FEW
16:00 17.4 °C 4.3 °C 1003.4 hPa West 20.9 km/h 30.6 km/h 42% 0.0 mm FEW
16:05 17.4 °C 4.3 °C 1003.2 hPa West 20.9 km/h 35.4 km/h 42% 0.0 mm FEW
16:09 17.4 °C 4.3 °C 1003.2 hPa West 20.1 km/h 31.5 km/h 42% 0.0 mm FEW
16:15 17.4 °C 4.3 °C 1003.2 hPa West 20.9 km/h 41.8 km/h 42% 0.0 mm FEW
16:20 17.3 °C 4.3 °C 1003.1 hPa WNW 19.0 km/h 42.6 km/h 42% 0.0 mm FEW
16:25 17.3 °C 4.3 °C 1003.1 hPa WNW 19.0 km/h 42.6 km/h 42% 0.0 mm FEW
16:30 17.3 °C 4.3 °C 1003.1 hPa WNW 21.7 km/h 31.5 km/h 42% 0.0 mm FEW
16:35 17.3 °C 4.3 °C 1002.8 hPa WSW 22.5 km/h 32.2 km/h 42% 0.0 mm FEW
16:40 17.3 °C 4.3 °C 1002.8 hPa West 16.1 km/h 40.2 km/h 42% 0.0 mm FEW
16:45 17.4 °C 4.3 °C 1002.8 hPa West 16.1 km/h 40.2 km/h 42% 0.0 mm FEW
16:50 17.4 °C 4.3 °C 1002.8 hPa SW 20.1 km/h 31.5 km/h 42% 0.0 mm FEW
16:55 17.3 °C 4.3 °C 1002.8 hPa West 20.9 km/h 29.0 km/h 42% 0.0 mm FEW
17:00 17.3 °C 4.3 °C 1002.8 hPa West 16.1 km/h 29.0 km/h 42% 0.0 mm FEW
17:05 17.4 °C 4.3 °C 1002.8 hPa WSW 16.4 km/h 37.0 km/h 42% 0.0 mm FEW
17:10 17.5 °C 4.4 °C 1002.8 hPa West 16.1 km/h 37.0 km/h 42% 0.0 mm FEW
17:15 17.6 °C 4.5 °C 1002.8 hPa SW 17.2 km/h 40.7 km/h 42% 0.0 mm FEW
17:20 17.7 °C 4.3 °C 1002.6 hPa West 24.1 km/h 41.8 km/h 41% 0.0 mm FEW
17:25 17.7 °C 4.3 °C 1002.6 hPa WSW 23.3 km/h 42.6 km/h 41% 0.0 mm FEW
17:30 17.7 °C 4.3 °C 1002.6 hPa West 24.1 km/h 54.7 km/h 41% 0.0 mm FEW
17:35 17.7 °C 4.3 °C 1002.8 hPa West 23.3 km/h 44.4 km/h 41% 0.0 mm FEW
17:40 17.7 °C 4.3 °C 1002.8 hPa West 24.1 km/h 37.0 km/h 41% 0.0 mm FEW
17:45 17.7 °C 4.3 °C 1002.8 hPa West 24.1 km/h 33.8 km/h 41% 0.0 mm FEW
17:50 17.7 °C 4.6 °C 1002.7 hPa West 19.0 km/h 24.1 km/h 42% 0.0 mm FEW
17:55 17.7 °C 4.6 °C 1002.7 hPa West 19.0 km/h 40.7 km/h 42% 0.0 mm FEW
18:00 17.6 °C 4.6 °C 1002.7 hPa West 19.3 km/h 43.4 km/h 42% 0.0 mm FEW
18:05 17.6 °C 4.5 °C 1002.4 hPa WSW 19.0 km/h 29.6 km/h 42% 0.0 mm FEW
18:10 17.5 °C 4.4 °C 1002.4 hPa West 19.8 km/h 29.6 km/h 42% 0.0 mm FEW
18:15 17.5 °C 4.4 °C 1002.4 hPa West 20.9 km/h 41.8 km/h 42% 0.0 mm FEW
18:20 17.5 °C 4.4 °C 1002.3 hPa WNW 19.8 km/h 31.5 km/h 42% 0.0 mm FEW
18:25 17.5 °C 4.4 °C 1002.3 hPa SW 19.8 km/h 25.9 km/h 42% 0.0 mm FEW
18:30 17.6 °C 4.5 °C 1002.3 hPa West 16.1 km/h 33.8 km/h 42% 0.0 mm FEW
18:35 17.6 °C 4.5 °C 1002.8 hPa West 16.1 km/h 30.6 km/h 42% 0.0 mm FEW
18:40 17.5 °C 4.4 °C 1002.8 hPa WSW 17.2 km/h 37.0 km/h 42% 0.0 mm FEW
18:45 17.6 °C 4.5 °C 1002.8 hPa WSW 17.2 km/h 51.8 km/h 42% 0.0 mm FEW
18:50 17.6 °C 4.5 °C 1002.6 hPa West 20.9 km/h 37.0 km/h 42% 0.0 mm FEW
18:55 17.7 °C 4.6 °C 1002.6 hPa West 20.9 km/h 43.4 km/h 42% 0.0 mm FEW
19:00 17.7 °C 4.3 °C 1002.6 hPa West 24.1 km/h 41.8 km/h 41% 0.0 mm FEW
19:05 17.7 °C 4.3 °C 1002.6 hPa West 24.1 km/h 35.4 km/h 41% 0.0 mm FEW
19:10 17.7 °C 4.6 °C 1002.6 hPa West 22.5 km/h 45.1 km/h 42% 0.0 mm FEW
19:15 17.6 °C 4.5 °C 1002.6 hPa WNW 22.0 km/h 33.5 km/h 42% 0.0 mm FEW
19:20 17.7 °C 4.6 °C 1002.6 hPa West 22.5 km/h 40.2 km/h 42% 0.0 mm FEW
19:25 17.7 °C 4.6 °C 1002.6 hPa West 22.5 km/h 37.0 km/h 42% 0.0 mm FEW
19:30 17.6 °C 4.5 °C 1002.6 hPa West 22.5 km/h 37.0 km/h 42% 0.0 mm FEW
19:35 17.6 °C 4.5 °C 1002.9 hPa West 22.5 km/h 33.8 km/h 42% 0.0 mm FEW
19:40 17.4 °C 4.3 °C 1002.9 hPa West 16.4 km/h 29.6 km/h 42% 0.0 mm FEW
19:45 17.4 °C 4.7 °C 1002.9 hPa WNW 16.4 km/h 22.2 km/h 43% 0.0 mm FEW
19:50 17.3 °C 4.6 °C 1002.9 hPa WSW 15.6 km/h 33.3 km/h 43% 0.0 mm CLR
19:55 17.4 °C 4.7 °C 1002.9 hPa West 14.5 km/h 35.4 km/h 43% 0.0 mm CLR
20:00 17.3 °C 4.6 °C 1002.9 hPa West 16.1 km/h 30.6 km/h 43% 0.0 mm CLR
20:05 17.4 °C 4.7 °C 1003.4 hPa WNW 16.4 km/h 24.1 km/h 43% 0.0 mm CLR
20:10 17.4 °C 4.7 °C 1003.4 hPa WNW 16.4 km/h 18.5 km/h 43% 0.0 mm CLR
20:15 17.3 °C 4.6 °C 1003.4 hPa WNW 16.4 km/h 31.5 km/h 43% 0.0 mm CLR
20:20 17.3 °C 4.6 °C 1003.4 hPa WSW 14.0 km/h 20.4 km/h 43% 0.0 mm CLR
20:25 17.3 °C 4.9 °C 1003.4 hPa WSW 14.0 km/h 27.8 km/h 44% 0.0 mm CLR
20:30 17.3 °C 4.9 °C 1003.4 hPa West 14.0 km/h 25.9 km/h 44% 0.0 mm CLR
20:35 17.3 °C 4.9 °C 1002.9 hPa SW 14.0 km/h 38.9 km/h 44% 0.0 mm CLR
20:40 17.4 °C 5.0 °C 1002.9 hPa SW 16.1 km/h 29.6 km/h 44% 0.0 mm CLR
20:45 17.3 °C 4.9 °C 1002.9 hPa WSW 16.1 km/h 25.7 km/h 44% 0.0 mm CLR
20:50 17.3 °C 4.9 °C 1002.9 hPa WSW 14.5 km/h 25.7 km/h 44% 0.0 mm CLR
20:55 17.2 °C 4.8 °C 1002.9 hPa West 14.5 km/h 27.4 km/h 44% 0.0 mm CLR
21:00 17.3 °C 4.9 °C 1002.9 hPa West 14.5 km/h 27.4 km/h 44% 0.0 mm CLR
21:05 17.3 °C 4.9 °C 1002.8 hPa WNW 14.0 km/h 25.9 km/h 44% 0.0 mm CLR
21:10 17.3 °C 4.9 °C 1002.8 hPa WSW 13.7 km/h 29.6 km/h 44% 0.0 mm CLR
21:15 17.3 °C 4.9 °C 1002.8 hPa NW 13.7 km/h 24.5 km/h 44% 0.0 mm CLR
21:20 17.3 °C 4.9 °C 1002.4 hPa SW 18.0 km/h 31.5 km/h 44% 0.0 mm CLR
21:25 17.4 °C 5.0 °C 1002.4 hPa WNW 18.0 km/h 35.9 km/h 44% 0.0 mm CLR
21:30 17.4 °C 4.7 °C 1002.4 hPa West 22.5 km/h 35.9 km/h 43% 0.0 mm CLR
21:35 17.4 °C 4.7 °C 1002.8 hPa West 22.5 km/h 40.2 km/h 43% 0.0 mm CLR
21:40 17.4 °C 4.7 °C 1002.8 hPa West 22.5 km/h 35.4 km/h 43% 0.0 mm CLR
21:45 17.4 °C 4.7 °C 1002.8 hPa West 22.5 km/h 35.4 km/h 43% 0.0 mm CLR
21:50 17.4 °C 4.7 °C 1003.0 hPa West 20.1 km/h 27.8 km/h 43% 0.0 mm CLR
21:55 17.5 °C 4.8 °C 1003.0 hPa West 20.1 km/h 40.7 km/h 43% 0.0 mm CLR
22:00 17.5 °C 4.8 °C 1003.0 hPa WNW 22.5 km/h 40.2 km/h 43% 0.0 mm CLR
22:05 17.4 °C 4.7 °C 1003.0 hPa WNW 22.0 km/h 18.5 km/h 43% 0.0 mm CLR
22:10 17.3 °C 4.6 °C 1003.0 hPa West 17.2 km/h 22.5 km/h 43% 0.0 mm CLR
22:15 17.3 °C 4.6 °C 1003.0 hPa WNW 17.2 km/h 29.1 km/h 43% 0.0 mm CLR
22:20 17.3 °C 4.6 °C 1003.0 hPa West 19.3 km/h 29.0 km/h 43% 0.0 mm CLR
22:25 17.2 °C 4.8 °C 1003.0 hPa NW 18.3 km/h 20.4 km/h 44% 0.0 mm CLR
22:30 17.2 °C 4.8 °C 1003.0 hPa West 14.0 km/h 22.2 km/h 44% 0.0 mm CLR
22:35 17.2 °C 4.8 °C 1003.0 hPa WNW 14.5 km/h 24.1 km/h 44% 0.0 mm CLR
22:40 17.2 °C 4.8 °C 1003.0 hPa NW 14.0 km/h 18.5 km/h 44% 0.0 mm CLR
22:45 17.1 °C 4.7 °C 1003.0 hPa WNW 14.0 km/h 20.4 km/h 44% 0.0 mm CLR
22:50 17.1 °C 4.7 °C 1003.1 hPa WNW 14.5 km/h 25.7 km/h 44% 0.0 mm CLR
22:55 17.0 °C 4.7 °C 1003.1 hPa SW 14.8 km/h 24.1 km/h 44% 0.0 mm CLR
23:00 17.0 °C 4.7 °C 1003.1 hPa West 12.9 km/h 25.7 km/h 44% 0.0 mm CLR
23:05 17.1 °C 4.7 °C 1002.7 hPa West 13.7 km/h 25.9 km/h 44% 0.0 mm CLR
23:10 16.9 °C 4.6 °C 1002.7 hPa West 14.5 km/h 20.9 km/h 44% 0.0 mm CLR
23:15 16.9 °C 4.6 °C 1002.7 hPa West 14.5 km/h 29.0 km/h 44% 0.0 mm CLR
23:19 17.1 °C 4.7 °C 1002.6 hPa West 14.0 km/h 27.8 km/h 44% 0.0 mm CLR
23:25 17.1 °C 4.4 °C 1002.6 hPa West 14.5 km/h 33.8 km/h 43% 0.0 mm CLR
23:30 17.1 °C 4.7 °C 1002.6 hPa West 14.8 km/h 29.6 km/h 44% 0.0 mm CLR
23:35 17.1 °C 4.4 °C 1002.4 hPa WNW 14.8 km/h 18.5 km/h 43% 0.0 mm CLR
23:40 17.1 °C 4.4 °C 1002.4 hPa WSW 14.8 km/h 29.6 km/h 43% 0.0 mm CLR
23:45 17.2 °C 4.5 °C 1002.4 hPa West 14.8 km/h 33.3 km/h 43% 0.0 mm CLR
23:50 17.2 °C 4.5 °C 1002.3 hPa West 19.0 km/h 33.3 km/h 43% 0.0 mm CLR
23:55 17.2 °C 4.5 °C 1002.3 hPa West 19.0 km/h 18.5 km/h 43% 0.0 mm CLR
Murcia-Puente Tocinos, España
Compliments of Weather Underground - 2.75 mb

La estación de MeteoMurcia.com, publica sus datos en los siguientes proyectos:

Weather Underground PWS IMURCIAP2 Meteoclimatic www.awekas.at

W3Counter
Web Analytics